{"data":{"norad_id":55803,"intl_designator":"2023-029H","name":"ONEWEB-0639","alt_names":[],"object_type":"PAYLOAD","status":"ACTIVE","operator":null,"country":"UK","launch_date":"2023-03-09","launch_site_code":"AFETR","launch_vehicle":null,"mission":null,"orbit_class":"UNKNOWN","rcs_meters":null,"size_class":null,"mass_kg":null,"dimensions":null,"purposes":["comms"],"wikipedia_slug":null,"has_3d_model":false,"image_url":null,"decayed_at":null,"tle_current":{"epoch":"2026-09-19T10:10:18.831648Z","epoch_age_seconds":115007,"freshness":"FRESH","line1":"1 55803U 23029H   26262.42382907  .00000066  00000+0  13266-3 0  9992","line2":"2 55803  87.9104 286.1983 0002046  57.5578 302.5753 13.19726159171332","mean_motion":13.19726159,"eccentricity":0.0002046,"inclination_deg":87.9104,"raan_deg":286.1983,"arg_perigee_deg":57.5578,"mean_anomaly_deg":302.5753,"bstar":0.00013266,"rev_number":17133,"period_min":109.11354527451,"perigee_km":1184.2185489393,"apogee_km":1187.3136980975,"semimajor_km":7563.9031235184,"source":"CELESTRAK","updated_at":"2026-09-20T09:00:44.760216Z"}}}